AirNav   Everest Fuels
 
 1392 users online  

2AK0 Mac Kenzie Country Airpark
Point MacKenzie, Alaska, USA

GOING TO POINT MACKENZIE?


FAA INFORMATION EFFECTIVE 16 JUNE 2022

Location

FAA Identifier: 2AK0
Lat/Long: 61-15-21.1700N 149-58-28.7600W
61-15.352833N 149-58.479333W
61.2558806,-149.9746556
(estimated)
Elevation: 120 ft. / 37 m
Time zone: UTC -8 (UTC -9 during Standard Time)
Zip code: 99687

Airport Operations

Airport use: Private use. Permission required prior to landing
Activation date: 04/2004
Control tower: no
ARTCC: ANCHORAGE CENTER
FSS: KENAI FLIGHT SERVICE STATION [907-283-7211]
Attendance: UNATNDD
Segmented circle: no

Airport Communications

CTAF: 122.9
WX ASOS at LHD (4 nm S): PHONE 907-245-5432
WX ASOS at MRI (5 nm SE): 124.25 (907-271-5277)
WX ASOS at ANC (5 nm S): PHONE 907-271-5278
WX ASOS at FRN (9 nm E): 134.25
WX AWOS-3P at BCV (17 nm NE): 135.55 (907-688-0826)

Airport Services

Runway Information

Runway 16/34

Dimensions: 1400 x 60 ft. / 427 x 18 m
Surface: dirt
RUNWAY 16  RUNWAY 34
Traffic pattern: leftleft

Airport Ownership and Management from official FAA records

Ownership: Privately-owned
Owner: ELINOR JONES-ELG
BOX 610
AGUILA, AZ 85320-0610
Phone 907-243-7733
Manager: ELINOR JONES-ELG
BOX 610
AGUILA, AZ 85320-0610
Phone 928-671-2882

Airport Operational Statistics

Aircraft based on the field: 1
Single engine airplanes: 1
    

Additional Remarks

SOFT AT SPRING THAW.
RY NOT PLOWED IN WINTER.
TREES & BRUSH ALONG BOTH SIDES OF RY.

Instrument Procedures

There are no published instrument procedures at 2AK0.

Some nearby airports with instrument procedures:

PAMR - Merrill Field Airport (5 nm SE)
PAED - Elmendorf Air Force Base (5 nm E)
PANC - Ted Stevens Anchorage International Airport (5 nm S)
PAFR - Bryant Army Airfield Heliport (9 nm E)
PAGQ - Big Lake Airport (17 nm N)
 
Loc | Ops | Rwys | IFR | FBO | Links
Com | Nav | Svcs | Stats | Notes

Crowley Maritime Corporation
 
Area around 2AK0 (Mac Kenzie Country Airpark)
 
Road maps at: MapQuest Bing Google
 
Aerial photo
No photo
 
Sectional chart

 
Airport distance calculator
Flying to Mac Kenzie Country Airpark? Find the distance to fly.

From to 2AK0

Sunrise and sunset
Times for 28-Jun-2022
 Local
(UTC-8)
 Zulu
(UTC)
Morning civil twilight++
Sunrise04:2512:25
Sunset23:4107:41
Evening civil twilight++

Current date and time
Zulu (UTC)  28-Jun-2022 22:54:18
Local (UTC-8)  28-Jun-2022 14:54:18
 
METAR
PAMR 
4nm SE 
282153Z 30007KT 10SM CLR 21/09 A3000 RMK AO2 SLP158 T02060089
PALH 
4nm S 
282153Z 00000KT 10SM CLR 19/10 A3001 RMK AO2 SLP162 T01890100
PAED 
5nm E 
282156Z 24007KT 10SM FEW250 20/08 A2998 RMK AO2A SLP148 T01970084 $
PANC 
5nm S 
282153Z 31004KT 10SM FEW200 18/10 A3000 RMK AO2 SLP159 T01780100
PAFR 
9nm E 
281756Z AUTO M M M M M A3003 RMK AO2 SLPNO ALSTG ESTMD 10161 20050 55011 RVRNO PWINO FZRANO TSNO VISNO RWY35 CHINO RWY35 $
PABV 
16nm NE 
282156Z AUTO VRB05KT 10SM CLR 19/08 A3000 RMK AO2 SLP165 T01940083
TAF
PAED 
5nm E 
280200Z 2802/2908 25012KT 9999 FEW050 SCT200 QNH3008INS WND VRB06KT AFT 2806 BECMG 2811/2812 VRB05KT 9999 FEW015 SCT030 SCT200 QNH3002INS BECMG 2814/2815 VRB06KT 9999 SCT015 BKN030 QNH2999INS BECMG 2819/2820 25012KT 9999 FEW015 SCT030 QNH2992INS TX18/2902Z TN11/2813Z
PANC 
5nm S 
280520Z 2806/2912 29005KT P6SM SKC
NOTAMs
Click for the latest NOTAMs
NOTAMs are issued by the DoD/FAA and will open in a separate window not controlled by AirNav.

 

 
 

Would you like to see your business listed on this page?

 If your business provides an interesting product or service to pilots, flight crews, aircraft, or users of the Mac Kenzie Country Airpark, you should consider listing it here.  To start the listing process, click on the button below
 
Add a business
 

Other Pages about Mac Kenzie Country Airpark

Update a link
 
Copyright © AirNav, LLC. All rights reserved. Privacy Policy  Contact